Regional Weather Roundup
Issued by NWS Goodland, KS

Home | Current Version | Previous Version | Graphics & Text | Print | Product List | Glossary On
Versions: 1 2 3 4 5 6 7 8 9 10 11 12 13 14 15 16 17 18 19 20 21 22 23 24 25 26 27 28 29 30 31 32 33 34 35 36 37 38 39 40 41 42 43 44 45 46 47 48 49 50
000
ASUS43 KGLD 220008
RWRGLD

GOODLAND FORECAST AREA HOURLY WEATHER ROUNDUP
NATIONAL WEATHER SERVICE GOODLAND KS
500 PM MST WED FEB 21 2018

...OFFICIAL OBSERVATIONS...

CITY           SKY/WX    TMP DP  RH WIND       PRES   REMARKS
GOODLAND KS    CLOUDY    26   3  37 SE13      30.27S WCI  15
HILL CITY KS   CLOUDY    27   1  32 E8        30.40F
IMPERIAL NEB   FAIR      23  10  57 E8        30.31S
MCCOOK NEB     CLOUDY    28   5  37 SE15      30.37S WCI  16
AKRON CO       FAIR      24  12  60 SE15G24   30.17R WCI  11
BURLINGTON CO  CLOUDY    25  10  53 SE16      30.22S WCI  12
LIMON CO       FAIR      24   8  50 SE18      30.12R WCI  10
$$

...UNOFFICIAL OBSERVATIONS...

CITY           SKY/WX    TMP DP  RH WIND       PRES   REMARKS
COLBY KS       CLOUDY    28  10  47 SE10      30.34S WCI  19
LENORA KS        N/A     27  32 100 CALM        N/A
TRENTON NEB      N/A     27  32 100 S8          N/A
YUMA CO        FAIR      27  10  50 SE14      30.21S WCI  15
$$



USA.gov is the U.S. government's official web portal to all federal, state and local government web resources and services.